Time,TemperatureF,DewpointF,PressureIn,WindDirection,WindDirectionDegrees,WindSpeedMPH,WindSpeedGustMPH,Humidity,HourlyPrecipIn,Conditions,Clouds,dailyrainin,SoftwareType,DateUTC
2017-03-25 00:03:00,66.3,55.8,30.11,WSW,245,3.0,3.0,69,0.00,,,0.00,VWS V15.00,2017-03-25 04:03:00,
2017-03-25 00:08:00,66.0,55.5,30.11,WSW,240,1.0,4.0,69,0.00,,,0.00,VWS V15.00,2017-03-25 04:08:00,
2017-03-25 00:13:00,65.8,55.4,30.11,WSW,241,2.0,2.0,69,0.00,,,0.00,VWS V15.00,2017-03-25 04:13:00,
2017-03-25 00:23:00,65.4,55.4,30.11,WSW,240,1.0,2.0,70,0.00,,,0.00,VWS V15.00,2017-03-25 04:23:00,
2017-03-25 00:28:00,65.2,55.2,30.11,SW,233,1.0,2.0,70,0.00,,,0.00,VWS V15.00,2017-03-25 04:28:00,
2017-03-25 00:33:00,64.9,55.3,30.10,SSW,197,1.0,3.0,71,0.00,,,0.00,VWS V15.00,2017-03-25 04:33:00,
2017-03-25 00:39:00,64.9,55.3,30.10,South,183,1.0,3.0,71,0.00,,,0.00,VWS V15.00,2017-03-25 04:39:00,
2017-03-25 00:44:00,64.9,55.7,30.11,SSW,203,2.0,4.0,72,0.00,,,0.00,VWS V15.00,2017-03-25 04:44:00,
2017-03-25 00:54:00,64.6,55.4,30.10,South,190,2.0,4.0,72,0.00,,,0.00,VWS V15.00,2017-03-25 04:54:00,
2017-03-25 00:59:00,64.5,55.3,30.10,South,186,1.0,4.0,72,0.00,,,0.00,VWS V15.00,2017-03-25 04:59:00,
2017-03-25 01:04:00,64.4,55.2,30.10,South,190,2.0,3.0,72,0.00,,,0.00,VWS V15.00,2017-03-25 05:04:00,
2017-03-25 01:09:00,64.1,55.3,30.10,SSW,200,2.0,2.0,73,0.00,,,0.00,VWS V15.00,2017-03-25 05:09:00,
2017-03-25 01:14:00,63.9,55.1,30.10,South,189,1.0,2.0,73,0.00,,,0.00,VWS V15.00,2017-03-25 05:14:00,
2017-03-25 01:19:00,63.8,55.0,30.10,South,169,2.0,2.0,73,0.00,,,0.00,VWS V15.00,2017-03-25 05:19:00,
2017-03-25 01:24:00,63.7,54.9,30.10,SSW,195,2.0,4.0,73,0.00,,,0.00,VWS V15.00,2017-03-25 05:24:00,
2017-03-25 01:29:00,63.7,55.3,30.10,SSW,198,1.0,1.0,74,0.00,,,0.00,VWS V15.00,2017-03-25 05:29:00,
2017-03-25 01:30:00,63.7,55.3,30.10,SSW,197,1.0,1.0,74,0.00,,,0.00,VWS V15.00,2017-03-25 05:30:00,
2017-03-25 01:35:00,63.6,55.2,30.10,South,185,1.0,3.0,74,0.00,,,0.00,VWS V15.00,2017-03-25 05:35:00,
2017-03-25 01:40:00,63.4,55.0,30.10,South,171,1.0,2.0,74,0.00,,,0.00,VWS V15.00,2017-03-25 05:40:00,
2017-03-25 01:45:00,63.2,54.8,30.10,South,175,2.0,4.0,74,0.00,,,0.00,VWS V15.00,2017-03-25 05:45:00,
2017-03-25 01:50:00,62.9,54.9,30.10,South,173,2.0,2.0,75,0.00,,,0.00,VWS V15.00,2017-03-25 05:50:00,
2017-03-25 01:55:00,62.4,54.4,30.10,South,173,2.0,2.0,75,0.00,,,0.00,VWS V15.00,2017-03-25 05:55:00,
2017-03-25 02:00:00,61.9,54.3,30.10,South,173,1.0,2.0,76,0.00,,,0.00,VWS V15.00,2017-03-25 06:00:00,
2017-03-25 02:01:00,61.9,54.3,30.10,South,173,2.0,2.0,76,0.00,,,0.00,VWS V15.00,2017-03-25 06:01:00,
2017-03-25 02:06:00,61.7,54.4,30.09,South,175,2.0,5.0,77,0.00,,,0.00,VWS V15.00,2017-03-25 06:06:00,
2017-03-25 02:11:00,61.7,54.4,30.09,South,169,2.0,5.0,77,0.00,,,0.00,VWS V15.00,2017-03-25 06:11:00,
2017-03-25 02:16:00,61.7,54.4,30.09,South,175,2.0,5.0,77,0.00,,,0.00,VWS V15.00,2017-03-25 06:16:00,
2017-03-25 02:21:00,61.7,54.4,30.09,South,177,1.0,4.0,77,0.00,,,0.00,VWS V15.00,2017-03-25 06:21:00,
2017-03-25 02:26:00,61.7,54.4,30.09,South,173,2.0,4.0,77,0.00,,,0.00,VWS V15.00,2017-03-25 06:26:00,
2017-03-25 02:31:00,61.7,54.4,30.09,South,175,1.0,2.0,77,0.00,,,0.00,VWS V15.00,2017-03-25 06:31:00,
2017-03-25 02:36:00,61.6,54.3,30.08,South,171,2.0,4.0,77,0.00,,,0.00,VWS V15.00,2017-03-25 06:36:00,
2017-03-25 02:41:00,61.6,54.3,30.08,South,173,1.0,2.0,77,0.00,,,0.00,VWS V15.00,2017-03-25 06:41:00,
2017-03-25 02:46:00,61.6,54.3,30.08,SSW,207,1.0,4.0,77,0.00,,,0.00,VWS V15.00,2017-03-25 06:46:00,
2017-03-25 02:51:00,61.8,54.2,30.08,South,177,1.0,4.0,76,0.00,,,0.00,VWS V15.00,2017-03-25 06:51:00,
2017-03-25 02:56:00,61.8,54.2,30.08,South,180,1.0,4.0,76,0.00,,,0.00,VWS V15.00,2017-03-25 06:56:00,
2017-03-25 03:01:00,61.8,53.8,30.08,South,175,1.0,4.0,75,0.00,,,0.00,VWS V15.00,2017-03-25 07:01:00,
2017-03-25 03:07:00,61.9,53.9,30.08,South,173,4.0,4.0,75,0.00,,,0.00,VWS V15.00,2017-03-25 07:07:00,
2017-03-25 03:12:00,62.0,54.0,30.08,SSE,152,4.0,5.0,75,0.00,,,0.00,VWS V15.00,2017-03-25 07:12:00,
2017-03-25 03:22:00,62.0,54.0,30.08,SSE,155,2.0,5.0,75,0.00,,,0.00,VWS V15.00,2017-03-25 07:22:00,
2017-03-25 03:27:00,61.9,53.9,30.08,SSE,164,4.0,6.0,75,0.00,,,0.00,VWS V15.00,2017-03-25 07:27:00,
2017-03-25 03:32:00,61.6,53.6,30.08,SSE,157,1.0,5.0,75,0.00,,,0.00,VWS V15.00,2017-03-25 07:32:00,
2017-03-25 03:42:00,61.0,53.4,30.07,SSE,150,4.0,6.0,76,0.00,,,0.00,VWS V15.00,2017-03-25 07:42:00,
2017-03-25 03:47:00,60.6,53.4,30.07,SSE,158,1.0,6.0,77,0.00,,,0.00,VWS V15.00,2017-03-25 07:47:00,
2017-03-25 03:52:00,60.4,53.2,30.07,SSE,163,2.0,4.0,77,0.00,,,0.00,VWS V15.00,2017-03-25 07:52:00,
2017-03-25 03:56:00,60.4,53.2,30.07,SSE,149,2.0,5.0,77,0.00,,,0.00,VWS V15.00,2017-03-25 07:56:00,
2017-03-25 04:01:00,60.3,53.4,30.07,South,175,1.0,4.0,78,0.00,,,0.00,VWS V15.00,2017-03-25 08:01:00,
2017-03-25 04:06:00,60.1,53.2,30.07,SSE,168,2.0,4.0,78,0.00,,,0.00,VWS V15.00,2017-03-25 08:06:00,
2017-03-25 04:11:00,59.9,53.0,30.07,South,180,1.0,4.0,78,0.00,,,0.00,VWS V15.00,2017-03-25 08:11:00,
2017-03-25 04:16:00,59.8,52.9,30.07,South,172,1.0,5.0,78,0.00,,,0.00,VWS V15.00,2017-03-25 08:16:00,
2017-03-25 04:21:00,59.8,52.9,30.07,SSE,166,1.0,4.0,78,0.00,,,0.00,VWS V15.00,2017-03-25 08:21:00,
2017-03-25 04:26:00,59.7,52.8,30.07,SSE,153,2.0,4.0,78,0.00,,,0.00,VWS V15.00,2017-03-25 08:26:00,
2017-03-25 04:31:00,59.7,52.8,30.06,SSE,158,1.0,5.0,78,0.00,,,0.00,VWS V15.00,2017-03-25 08:31:00,
2017-03-25 04:37:00,59.7,52.8,30.06,SSE,152,1.0,6.0,78,0.00,,,0.00,VWS V15.00,2017-03-25 08:37:00,
2017-03-25 04:42:00,59.7,52.8,30.06,SSE,150,2.0,5.0,78,0.00,,,0.00,VWS V15.00,2017-03-25 08:42:00,
2017-03-25 04:47:00,59.7,52.8,30.06,South,170,1.0,5.0,78,0.00,,,0.00,VWS V15.00,2017-03-25 08:47:00,
2017-03-25 04:52:00,59.7,52.8,30.06,SSE,156,0.0,5.0,78,0.00,,,0.00,VWS V15.00,2017-03-25 08:52:00,
2017-03-25 04:57:00,59.7,52.8,30.06,SE,143,2.0,5.0,78,0.00,,,0.00,VWS V15.00,2017-03-25 08:57:00,
2017-03-25 05:02:00,59.7,52.8,30.06,SE,140,2.0,4.0,78,0.00,,,0.00,VWS V15.00,2017-03-25 09:02:00,
2017-03-25 05:07:00,59.7,52.8,30.06,SSE,154,4.0,7.0,78,0.00,,,0.00,VWS V15.00,2017-03-25 09:07:00,
2017-03-25 05:08:00,59.7,52.8,30.06,SSE,155,1.0,7.0,78,0.00,,,0.00,VWS V15.00,2017-03-25 09:08:00,
2017-03-25 05:13:00,59.5,52.6,30.06,SSE,154,2.0,2.0,78,0.00,,,0.00,VWS V15.00,2017-03-25 09:13:00,
2017-03-25 05:18:00,59.4,52.5,30.06,ESE,121,1.0,5.0,78,0.00,,,0.00,VWS V15.00,2017-03-25 09:18:00,
2017-03-25 05:23:00,59.3,52.5,30.06,SE,127,5.0,7.0,78,0.00,,,0.00,VWS V15.00,2017-03-25 09:23:00,
2017-03-25 05:28:00,59.3,52.5,30.06,SSE,148,2.0,7.0,78,0.00,,,0.00,VWS V15.00,2017-03-25 09:28:00,
2017-03-25 05:33:00,59.2,52.3,30.06,SSE,165,4.0,6.0,78,0.00,,,0.00,VWS V15.00,2017-03-25 09:33:00,
2017-03-25 05:38:00,59.1,52.3,30.06,SE,144,4.0,7.0,78,0.00,,,0.00,VWS V15.00,2017-03-25 09:38:00,
2017-03-25 05:43:00,59.0,52.8,30.06,SE,137,2.0,6.0,80,0.00,,,0.00,VWS V15.00,2017-03-25 09:43:00,
2017-03-25 05:48:00,58.9,52.1,30.06,SE,142,2.0,6.0,78,0.00,,,0.00,VWS V15.00,2017-03-25 09:48:00,
2017-03-25 05:54:00,58.9,52.1,30.06,SSE,155,2.0,7.0,78,0.00,,,0.00,VWS V15.00,2017-03-25 09:54:00,
2017-03-25 05:59:00,58.8,52.0,30.06,SSE,150,2.0,7.0,78,0.00,,,0.00,VWS V15.00,2017-03-25 09:59:00,
2017-03-25 06:04:00,58.9,51.7,30.06,SSE,148,2.0,6.0,77,0.00,,,0.00,VWS V15.00,2017-03-25 10:04:00,
2017-03-25 06:09:00,58.9,51.7,30.07,SSE,153,2.0,7.0,77,0.00,,,0.00,VWS V15.00,2017-03-25 10:09:00,
2017-03-25 06:19:00,58.5,51.7,30.07,SSE,153,4.0,6.0,78,0.00,,,0.00,VWS V15.00,2017-03-25 10:19:00,
2017-03-25 06:24:00,58.4,51.6,30.07,SSE,154,2.0,6.0,78,0.00,,,0.00,VWS V15.00,2017-03-25 10:24:00,
2017-03-25 06:29:00,58.4,51.6,30.07,SSE,153,4.0,4.0,78,0.00,,,0.00,VWS V15.00,2017-03-25 10:29:00,
2017-03-25 06:34:00,58.4,51.6,30.07,SSE,156,2.0,9.0,78,0.00,,,0.00,VWS V15.00,2017-03-25 10:34:00,
2017-03-25 06:39:00,58.4,51.6,30.07,SSE,159,2.0,5.0,78,0.00,,,0.00,VWS V15.00,2017-03-25 10:39:00,
2017-03-25 06:44:00,58.3,51.5,30.07,SSE,164,1.0,6.0,78,0.00,,,0.00,VWS V15.00,2017-03-25 10:44:00,
2017-03-25 06:49:00,58.3,51.5,30.07,SSE,167,2.0,6.0,78,0.00,,,0.00,VWS V15.00,2017-03-25 10:49:00,
2017-03-25 06:54:00,58.4,51.6,30.07,South,170,2.0,6.0,78,0.00,,,0.00,VWS V15.00,2017-03-25 10:54:00,
2017-03-25 06:59:00,58.2,51.4,30.08,SSE,151,1.0,2.0,78,0.00,,,0.00,VWS V15.00,2017-03-25 10:59:00,
2017-03-25 07:04:00,58.2,51.4,30.08,SSE,159,1.0,7.0,78,0.00,,,0.00,VWS V15.00,2017-03-25 11:04:00,
2017-03-25 07:09:00,58.1,50.9,30.08,South,171,2.0,2.0,77,0.00,,,0.00,VWS V15.00,2017-03-25 11:09:00,
2017-03-25 07:15:00,58.1,50.9,30.08,SSE,148,1.0,5.0,77,0.00,,,0.00,VWS V15.00,2017-03-25 11:15:00,
2017-03-25 07:20:00,58.1,50.9,30.08,SE,138,4.0,5.0,77,0.00,,,0.00,VWS V15.00,2017-03-25 11:20:00,
2017-03-25 07:25:00,58.1,50.9,30.08,SSE,160,2.0,6.0,77,0.00,,,0.00,VWS V15.00,2017-03-25 11:25:00,
2017-03-25 07:30:00,58.1,50.9,30.08,SSE,153,1.0,4.0,77,0.00,,,0.00,VWS V15.00,2017-03-25 11:30:00,
2017-03-25 07:35:00,57.9,51.1,30.08,SSE,159,1.0,5.0,78,0.00,,,0.00,VWS V15.00,2017-03-25 11:35:00,
2017-03-25 07:40:00,57.7,50.9,30.08,SE,134,4.0,5.0,78,0.00,,,0.00,VWS V15.00,2017-03-25 11:40:00,
2017-03-25 07:45:00,57.8,51.0,30.08,SSE,148,2.0,7.0,78,0.00,,,0.00,VWS V15.00,2017-03-25 11:45:00,
2017-03-25 07:50:00,57.9,51.1,30.08,SSE,152,4.0,6.0,78,0.00,,,0.00,VWS V15.00,2017-03-25 11:50:00,
2017-03-25 07:55:00,58.0,51.2,30.08,SSE,165,2.0,6.0,78,0.00,,,0.00,VWS V15.00,2017-03-25 11:55:00,
2017-03-25 08:00:00,58.1,51.3,30.08,ESE,123,4.0,5.0,78,0.00,,,0.00,VWS V15.00,2017-03-25 12:00:00,
2017-03-25 08:05:00,58.3,51.1,30.08,SSE,157,4.0,6.0,77,0.00,,,0.00,VWS V15.00,2017-03-25 12:05:00,
2017-03-25 08:10:00,58.5,51.3,30.08,SSE,148,4.0,9.0,77,0.00,,,0.00,VWS V15.00,2017-03-25 12:10:00,
2017-03-25 08:15:00,58.7,51.5,30.08,SSE,160,1.0,9.0,77,0.00,,,0.00,VWS V15.00,2017-03-25 12:15:00,
2017-03-25 08:21:00,58.8,51.6,30.08,South,172,5.0,7.0,77,0.00,,,0.00,VWS V15.00,2017-03-25 12:21:00,
2017-03-25 08:26:00,59.0,51.5,30.08,SSE,166,5.0,7.0,76,0.00,,,0.00,VWS V15.00,2017-03-25 12:26:00,
2017-03-25 08:31:00,59.1,51.5,30.09,SSE,159,1.0,7.0,76,0.00,,,0.00,VWS V15.00,2017-03-25 12:31:00,
2017-03-25 08:36:00,59.2,51.7,30.09,South,183,2.0,7.0,76,0.00,,,0.00,VWS V15.00,2017-03-25 12:36:00,
2017-03-25 08:41:00,59.3,51.8,30.09,SSW,194,3.0,6.0,76,0.00,,,0.00,VWS V15.00,2017-03-25 12:41:00,
2017-03-25 08:46:00,59.5,51.6,30.09,SSE,152,2.0,7.0,75,0.00,,,0.00,VWS V15.00,2017-03-25 12:46:00,
2017-03-25 08:51:00,59.8,51.9,30.09,ESE,123,6.0,7.0,75,0.00,,,0.00,VWS V15.00,2017-03-25 12:51:00,
2017-03-25 08:56:00,60.0,51.7,30.09,SSE,160,5.0,9.0,74,0.00,,,0.00,VWS V15.00,2017-03-25 12:56:00,
2017-03-25 09:01:00,60.3,51.6,30.09,SSE,166,2.0,7.0,73,0.00,,,0.00,VWS V15.00,2017-03-25 13:01:00,
2017-03-25 09:06:00,60.5,52.2,30.09,SE,137,2.0,7.0,74,0.00,,,0.00,VWS V15.00,2017-03-25 13:06:00,
2017-03-25 09:11:00,60.7,52.0,30.09,SSE,157,4.0,6.0,73,0.00,,,0.00,VWS V15.00,2017-03-25 13:11:00,
2017-03-25 09:16:00,60.9,52.2,30.09,SSE,167,4.0,6.0,73,0.00,,,0.00,VWS V15.00,2017-03-25 13:16:00,
2017-03-25 09:21:00,61.0,51.9,30.09,SSE,163,4.0,8.0,72,0.00,,,0.00,VWS V15.00,2017-03-25 13:21:00,
2017-03-25 09:26:00,61.1,52.0,30.09,South,182,4.0,8.0,72,0.00,,,0.00,VWS V15.00,2017-03-25 13:26:00,
2017-03-25 09:31:00,61.2,52.1,30.09,SSW,205,3.0,5.0,72,0.00,,,0.00,VWS V15.00,2017-03-25 13:31:00,
2017-03-25 09:37:00,61.4,51.9,30.09,SSE,167,1.0,8.0,71,0.00,,,0.00,VWS V15.00,2017-03-25 13:37:00,
2017-03-25 09:42:00,61.7,52.2,30.09,SSE,165,4.0,6.0,71,0.00,,,0.00,VWS V15.00,2017-03-25 13:42:00,
2017-03-25 09:47:00,62.1,52.6,30.09,SSE,154,4.0,8.0,71,0.00,,,0.00,VWS V15.00,2017-03-25 13:47:00,
2017-03-25 09:52:00,62.6,52.7,30.09,SSE,160,4.0,7.0,70,0.00,,,0.00,VWS V15.00,2017-03-25 13:52:00,
2017-03-25 09:57:00,63.0,52.7,30.09,SSW,194,6.0,8.0,69,0.00,,,0.00,VWS V15.00,2017-03-25 13:57:00,
2017-03-25 10:07:00,63.8,53.0,30.08,South,170,4.0,9.0,68,0.00,,,0.00,VWS V15.00,2017-03-25 14:07:00,
2017-03-25 10:12:00,64.0,52.8,30.09,SSW,207,7.0,9.0,67,0.00,,,0.00,VWS V15.00,2017-03-25 14:12:00,
2017-03-25 10:17:00,64.2,53.0,30.09,SSW,211,5.0,9.0,67,0.00,,,0.00,VWS V15.00,2017-03-25 14:17:00,
2017-03-25 10:22:00,64.5,52.9,30.09,SSW,200,4.0,9.0,66,0.00,,,0.00,VWS V15.00,2017-03-25 14:22:00,
2017-03-25 10:27:00,64.7,53.1,30.09,SSW,207,5.0,9.0,66,0.00,,,0.00,VWS V15.00,2017-03-25 14:27:00,
2017-03-25 10:32:00,65.0,53.0,30.09,SSW,209,6.0,8.0,65,0.00,,,0.00,VWS V15.00,2017-03-25 14:32:00,
2017-03-25 10:38:00,65.2,53.2,30.09,SSW,203,3.0,8.0,65,0.00,,,0.00,VWS V15.00,2017-03-25 14:38:00,
2017-03-25 10:43:00,65.4,53.3,30.09,SSE,155,5.0,7.0,65,0.00,,,0.00,VWS V15.00,2017-03-25 14:43:00,
2017-03-25 10:48:00,65.7,53.6,30.08,South,184,5.0,8.0,65,0.00,,,0.00,VWS V15.00,2017-03-25 14:48:00,
2017-03-25 10:53:00,65.8,53.3,30.08,SSE,148,8.0,9.0,64,0.00,,,0.00,VWS V15.00,2017-03-25 14:53:00,
2017-03-25 10:58:00,65.9,53.4,30.09,SSW,201,4.0,9.0,64,0.00,,,0.00,VWS V15.00,2017-03-25 14:58:00,
2017-03-25 11:03:00,66.0,53.1,30.08,SW,236,2.0,8.0,63,0.00,,,0.00,VWS V15.00,2017-03-25 15:03:00,
2017-03-25 11:08:00,66.1,53.6,30.08,ESE,119,9.0,11.0,64,0.00,,,0.00,VWS V15.00,2017-03-25 15:08:00,
2017-03-25 11:13:00,66.3,53.8,30.08,South,174,2.0,6.0,64,0.00,,,0.00,VWS V15.00,2017-03-25 15:13:00,
2017-03-25 11:18:00,66.5,54.0,30.08,SSE,163,6.0,7.0,64,0.00,,,0.00,VWS V15.00,2017-03-25 15:18:00,
2017-03-25 11:23:00,66.7,53.7,30.08,South,175,2.0,8.0,63,0.00,,,0.00,VWS V15.00,2017-03-25 15:23:00,
2017-03-25 11:33:00,67.0,54.0,30.07,South,175,4.0,7.0,63,0.00,,,0.00,VWS V15.00,2017-03-25 15:33:00,
2017-03-25 11:39:00,67.1,53.7,30.07,SSW,194,5.0,8.0,62,0.00,,,0.00,VWS V15.00,2017-03-25 15:39:00,
2017-03-25 11:44:00,67.5,53.6,30.07,SW,221,9.0,14.0,61,0.00,,,0.00,VWS V15.00,2017-03-25 15:44:00,
2017-03-25 11:49:00,67.7,53.8,30.08,SSE,160,6.0,14.0,61,0.00,,,0.00,VWS V15.00,2017-03-25 15:49:00,
2017-03-25 11:54:00,68.0,54.1,30.07,SSW,213,4.0,8.0,61,0.00,,,0.00,VWS V15.00,2017-03-25 15:54:00,
2017-03-25 11:59:00,68.0,54.1,30.07,SE,143,7.0,14.0,61,0.00,,,0.00,VWS V15.00,2017-03-25 15:59:00,
2017-03-25 12:04:00,68.0,54.1,30.07,SW,223,11.0,11.0,61,0.00,,,0.00,VWS V15.00,2017-03-25 16:04:00,
2017-03-25 12:09:00,68.3,54.3,30.08,SSW,199,2.0,2.0,61,0.00,,,0.00,VWS V15.00,2017-03-25 16:09:00,
2017-03-25 12:14:00,68.8,55.3,30.07,WSW,248,4.0,6.0,62,0.00,,,0.00,VWS V15.00,2017-03-25 16:14:00,
2017-03-25 12:19:00,69.2,54.3,30.07,South,173,6.0,6.0,59,0.00,,,0.00,VWS V15.00,2017-03-25 16:19:00,
2017-03-25 12:24:00,69.2,54.3,30.07,SSW,206,1.0,8.0,59,0.00,,,0.00,VWS V15.00,2017-03-25 16:24:00,
2017-03-25 12:29:00,69.5,54.6,30.07,South,191,5.0,7.0,59,0.00,,,0.00,VWS V15.00,2017-03-25 16:29:00,
2017-03-25 12:34:00,69.6,54.7,30.07,SSW,197,4.0,9.0,59,0.00,,,0.00,VWS V15.00,2017-03-25 16:34:00,
2017-03-25 12:39:00,69.9,54.9,30.07,SW,234,6.0,8.0,59,0.00,,,0.00,VWS V15.00,2017-03-25 16:39:00,
2017-03-25 12:44:00,70.2,55.2,30.06,South,183,2.0,12.0,59,0.00,,,0.00,VWS V15.00,2017-03-25 16:44:00,
2017-03-25 12:49:00,70.7,55.7,30.06,SSE,159,4.0,7.0,59,0.00,,,0.00,VWS V15.00,2017-03-25 16:49:00,
2017-03-25 12:55:00,71.2,55.7,30.06,SSW,193,4.0,12.0,58,0.00,,,0.00,VWS V15.00,2017-03-25 16:55:00,
2017-03-25 13:00:00,71.2,55.2,30.06,SW,217,4.0,6.0,57,0.00,,,0.00,VWS V15.00,2017-03-25 17:00:00,
2017-03-25 13:05:00,71.6,56.5,30.05,SSE,159,5.0,9.0,59,0.00,,,0.00,VWS V15.00,2017-03-25 17:05:00,
2017-03-25 13:10:00,71.6,56.1,30.05,SSE,163,5.0,5.0,58,0.00,,,0.00,VWS V15.00,2017-03-25 17:10:00,
2017-03-25 13:15:00,71.7,55.7,30.05,SSE,149,4.0,8.0,57,0.00,,,0.00,VWS V15.00,2017-03-25 17:15:00,
2017-03-25 13:20:00,72.0,56.0,30.05,South,171,7.0,13.0,57,0.00,,,0.00,VWS V15.00,2017-03-25 17:20:00,
2017-03-25 13:25:00,72.3,56.7,30.05,SE,133,6.0,14.0,58,0.00,,,0.00,VWS V15.00,2017-03-25 17:25:00,
2017-03-25 13:30:00,72.6,56.5,30.05,SSE,150,4.0,7.0,57,0.00,,,0.00,VWS V15.00,2017-03-25 17:30:00,
2017-03-25 13:35:00,72.8,55.2,30.05,SSE,157,4.0,9.0,54,0.00,,,0.00,VWS V15.00,2017-03-25 17:35:00,
2017-03-25 13:40:00,72.6,56.0,30.04,SSE,148,5.0,10.0,56,0.00,,,0.00,VWS V15.00,2017-03-25 17:40:00,
2017-03-25 13:45:00,72.9,56.8,30.04,SE,146,8.0,13.0,57,0.00,,,0.00,VWS V15.00,2017-03-25 17:45:00,
2017-03-25 13:50:00,73.0,56.9,30.04,SSE,161,7.0,8.0,57,0.00,,,0.00,VWS V15.00,2017-03-25 17:50:00,
2017-03-25 13:55:00,72.9,56.3,30.04,South,179,7.0,11.0,56,0.00,,,0.00,VWS V15.00,2017-03-25 17:55:00,
2017-03-25 13:59:00,72.7,55.1,30.04,SSE,163,5.0,12.0,54,0.00,,,0.00,VWS V15.00,2017-03-25 17:59:00,
2017-03-25 14:02:00,72.8,55.7,30.03,SSE,149,8.0,12.0,55,0.00,,,0.00,VWS V15.00,2017-03-25 18:02:00,
2017-03-25 14:07:00,72.8,55.7,30.03,SE,126,9.0,12.0,55,0.00,,,0.00,VWS V15.00,2017-03-25 18:07:00,
2017-03-25 14:12:00,72.9,56.3,30.03,SE,136,4.0,11.0,56,0.00,,,0.00,VWS V15.00,2017-03-25 18:12:00,
2017-03-25 14:17:00,73.4,56.8,30.03,SSW,211,2.0,11.0,56,0.00,,,0.00,VWS V15.00,2017-03-25 18:17:00,
2017-03-25 14:22:00,74.0,55.8,30.02,South,185,1.0,7.0,53,0.00,,,0.00,VWS V15.00,2017-03-25 18:22:00,
2017-03-25 14:27:00,74.2,56.0,30.02,SSE,152,5.0,18.0,53,0.00,,,0.00,VWS V15.00,2017-03-25 18:27:00,
2017-03-25 14:32:00,74.6,56.4,30.01,SE,126,18.0,19.0,53,0.00,,,0.00,VWS V15.00,2017-03-25 18:32:00,
2017-03-25 14:37:00,74.6,55.8,30.01,SE,145,7.0,19.0,52,0.00,,,0.00,VWS V15.00,2017-03-25 18:37:00,
2017-03-25 14:42:00,74.8,56.5,30.01,SE,140,5.0,14.0,53,0.00,,,0.00,VWS V15.00,2017-03-25 18:42:00,
2017-03-25 14:47:00,74.9,56.1,30.01,SE,135,5.0,17.0,52,0.00,,,0.00,VWS V15.00,2017-03-25 18:47:00,
2017-03-25 14:52:00,75.0,56.2,30.01,SSE,154,8.0,13.0,52,0.00,,,0.00,VWS V15.00,2017-03-25 18:52:00,
2017-03-25 14:53:00,75.0,56.2,30.01,SSE,165,5.0,13.0,52,0.00,,,0.00,VWS V15.00,2017-03-25 18:53:00,
2017-03-25 14:58:00,75.0,56.7,30.01,SSE,165,5.0,13.0,53,0.00,,,0.00,VWS V15.00,2017-03-25 18:58:00,
2017-03-25 15:03:00,75.0,57.2,30.00,ESE,105,6.0,14.0,54,0.00,,,0.00,VWS V15.00,2017-03-25 19:03:00,
2017-03-25 15:08:00,75.3,55.9,30.00,SSE,159,6.0,14.0,51,0.00,,,0.00,VWS V15.00,2017-03-25 19:08:00,
2017-03-25 15:13:00,75.4,55.5,30.00,ESE,123,11.0,13.0,50,0.00,,,0.00,VWS V15.00,2017-03-25 19:13:00,
2017-03-25 15:18:00,75.2,56.4,30.00,SSE,155,6.0,13.0,52,0.00,,,0.00,VWS V15.00,2017-03-25 19:18:00,
2017-03-25 15:23:00,74.8,55.5,30.00,South,190,3.0,12.0,51,0.00,,,0.00,VWS V15.00,2017-03-25 19:23:00,
2017-03-25 15:28:00,74.6,55.3,30.00,SSE,158,6.0,12.0,51,0.00,,,0.00,VWS V15.00,2017-03-25 19:28:00,
2017-03-25 15:33:00,74.0,55.3,30.00,ESE,115,8.0,12.0,52,0.00,,,0.00,VWS V15.00,2017-03-25 19:33:00,
2017-03-25 15:38:00,73.4,55.2,30.00,SE,127,8.0,14.0,53,0.00,,,0.00,VWS V15.00,2017-03-25 19:38:00,
2017-03-25 15:43:00,73.5,55.9,30.00,SSE,153,5.0,10.0,54,0.00,,,0.00,VWS V15.00,2017-03-25 19:43:00,
2017-03-25 15:48:00,74.0,55.8,30.00,SSE,148,7.0,18.0,53,0.00,,,0.00,VWS V15.00,2017-03-25 19:48:00,
2017-03-25 15:53:00,74.3,56.6,30.00,SE,140,7.0,14.0,54,0.00,,,0.00,VWS V15.00,2017-03-25 19:53:00,
2017-03-25 15:58:00,74.3,56.1,29.99,East,84,6.0,14.0,53,0.00,,,0.00,VWS V15.00,2017-03-25 19:58:00,
2017-03-25 16:04:00,73.7,55.5,29.99,SSE,148,7.0,13.0,53,0.00,,,0.00,VWS V15.00,2017-03-25 20:04:00,
2017-03-25 16:09:00,73.4,55.2,29.99,SE,141,11.0,15.0,53,0.00,,,0.00,VWS V15.00,2017-03-25 20:09:00,
2017-03-25 16:14:00,73.2,54.5,29.99,SSE,150,7.0,12.0,52,0.00,,,0.00,VWS V15.00,2017-03-25 20:14:00,
2017-03-25 16:19:00,73.4,55.2,29.99,SSE,167,6.0,14.0,53,0.00,,,0.00,VWS V15.00,2017-03-25 20:19:00,
2017-03-25 16:24:00,73.3,55.7,29.99,South,173,5.0,14.0,54,0.00,,,0.00,VWS V15.00,2017-03-25 20:24:00,
2017-03-25 16:29:00,73.2,55.6,29.99,SSE,152,6.0,15.0,54,0.00,,,0.00,VWS V15.00,2017-03-25 20:29:00,
2017-03-25 16:34:00,73.2,55.1,29.98,SSE,152,8.0,12.0,53,0.00,,,0.00,VWS V15.00,2017-03-25 20:34:00,
2017-03-25 16:39:00,73.3,55.2,29.98,SE,136,9.0,9.0,53,0.00,,,0.00,VWS V15.00,2017-03-25 20:39:00,
2017-03-25 16:44:00,73.4,55.2,29.98,SSE,159,6.0,12.0,53,0.00,,,0.00,VWS V15.00,2017-03-25 20:44:00,
2017-03-25 16:49:00,73.5,55.9,29.98,ESE,116,7.0,10.0,54,0.00,,,0.00,VWS V15.00,2017-03-25 20:49:00,
2017-03-25 16:54:00,73.9,55.2,29.98,ESE,115,7.0,17.0,52,0.00,,,0.00,VWS V15.00,2017-03-25 20:54:00,
2017-03-25 16:59:00,74.1,55.4,29.97,ESE,119,8.0,11.0,52,0.00,,,0.00,VWS V15.00,2017-03-25 20:59:00,
2017-03-25 17:04:00,74.2,56.0,29.97,South,190,4.0,14.0,53,0.00,,,0.00,VWS V15.00,2017-03-25 21:04:00,
2017-03-25 17:09:00,74.3,55.0,29.97,SSE,165,6.0,6.0,51,0.00,,,0.00,VWS V15.00,2017-03-25 21:09:00,
2017-03-25 17:14:00,74.6,54.8,29.97,SSW,202,4.0,11.0,50,0.00,,,0.00,VWS V15.00,2017-03-25 21:14:00,
2017-03-25 17:19:00,74.7,55.4,29.97,ESE,106,8.0,12.0,51,0.00,,,0.00,VWS V15.00,2017-03-25 21:19:00,
2017-03-25 17:25:00,74.8,56.5,29.97,SSE,159,6.0,12.0,53,0.00,,,0.00,VWS V15.00,2017-03-25 21:25:00,
2017-03-25 17:30:00,74.6,55.3,29.97,SSE,149,8.0,11.0,51,0.00,,,0.00,VWS V15.00,2017-03-25 21:30:00,
2017-03-25 17:35:00,74.3,55.6,29.97,SSE,155,6.0,15.0,52,0.00,,,0.00,VWS V15.00,2017-03-25 21:35:00,
2017-03-25 17:40:00,74.1,55.4,29.97,SSE,162,4.0,8.0,52,0.00,,,0.00,VWS V15.00,2017-03-25 21:40:00,
2017-03-25 17:45:00,74.1,54.8,29.96,SE,145,6.0,9.0,51,0.00,,,0.00,VWS V15.00,2017-03-25 21:45:00,
2017-03-25 17:50:00,74.2,54.9,29.96,SE,146,8.0,10.0,51,0.00,,,0.00,VWS V15.00,2017-03-25 21:50:00,
2017-03-25 17:55:00,74.1,54.8,29.96,SSE,154,5.0,14.0,51,0.00,,,0.00,VWS V15.00,2017-03-25 21:55:00,
2017-03-25 18:00:00,74.0,54.7,29.96,SE,142,8.0,13.0,51,0.00,,,0.00,VWS V15.00,2017-03-25 22:00:00,
2017-03-25 18:05:00,73.8,54.6,29.96,SE,130,7.0,13.0,51,0.00,,,0.00,VWS V15.00,2017-03-25 22:05:00,
2017-03-25 18:10:00,73.7,55.0,29.96,SE,125,5.0,7.0,52,0.00,,,0.00,VWS V15.00,2017-03-25 22:10:00,
2017-03-25 18:15:00,73.5,54.8,29.96,SE,140,6.0,11.0,52,0.00,,,0.00,VWS V15.00,2017-03-25 22:15:00,
2017-03-25 18:20:00,73.5,54.8,29.96,SSE,163,7.0,7.0,52,0.00,,,0.00,VWS V15.00,2017-03-25 22:20:00,
2017-03-25 18:25:00,73.5,54.8,29.96,SE,146,2.0,8.0,52,0.00,,,0.00,VWS V15.00,2017-03-25 22:25:00,
2017-03-25 18:31:00,73.3,55.2,29.96,ESE,113,4.0,6.0,53,0.00,,,0.00,VWS V15.00,2017-03-25 22:31:00,
2017-03-25 18:36:00,73.3,54.6,29.96,SSE,159,1.0,6.0,52,0.00,,,0.00,VWS V15.00,2017-03-25 22:36:00,
2017-03-25 18:41:00,73.3,54.6,29.96,East,101,8.0,9.0,52,0.00,,,0.00,VWS V15.00,2017-03-25 22:41:00,
2017-03-25 18:49:00,73.3,54.6,29.96,SSE,149,7.0,7.0,52,0.00,,,0.00,VWS V15.00,2017-03-25 22:49:00,
2017-03-25 18:54:00,73.5,54.3,29.96,ESE,112,4.0,9.0,51,0.00,,,0.00,VWS V15.00,2017-03-25 22:54:00,
2017-03-25 19:00:00,73.5,54.8,29.96,SSE,161,5.0,6.0,52,0.00,,,0.00,VWS V15.00,2017-03-25 23:00:00,
2017-03-25 19:05:00,73.4,54.7,29.96,SE,137,4.0,7.0,52,0.00,,,0.00,VWS V15.00,2017-03-25 23:05:00,
2017-03-25 19:10:00,73.3,55.2,29.96,SE,131,8.0,8.0,53,0.00,,,0.00,VWS V15.00,2017-03-25 23:10:00,
2017-03-25 19:15:00,73.2,54.5,29.96,ESE,121,6.0,14.0,52,0.00,,,0.00,VWS V15.00,2017-03-25 23:15:00,
2017-03-25 19:20:00,73.3,55.2,29.96,SSE,154,6.0,9.0,53,0.00,,,0.00,VWS V15.00,2017-03-25 23:20:00,
2017-03-25 19:25:00,72.9,54.8,29.96,SE,137,6.0,11.0,53,0.00,,,0.00,VWS V15.00,2017-03-25 23:25:00,
2017-03-25 19:30:00,72.7,54.6,29.96,SE,146,6.0,12.0,53,0.00,,,0.00,VWS V15.00,2017-03-25 23:30:00,
2017-03-25 19:31:00,72.7,55.1,29.96,ESE,113,6.0,12.0,54,0.00,,,0.00,VWS V15.00,2017-03-25 23:31:00,
2017-03-25 19:36:00,72.5,54.9,29.96,ESE,115,6.0,12.0,54,0.00,,,0.00,VWS V15.00,2017-03-25 23:36:00,
2017-03-25 19:41:00,72.3,54.7,29.96,SE,128,7.0,10.0,54,0.00,,,0.00,VWS V15.00,2017-03-25 23:41:00,
2017-03-25 19:46:00,72.2,54.7,29.96,SSE,160,4.0,14.0,54,0.00,,,0.00,VWS V15.00,2017-03-25 23:46:00,
2017-03-25 19:57:00,71.6,54.1,29.97,SSE,168,4.0,8.0,54,0.00,,,0.00,VWS V15.00,2017-03-25 23:57:00,
2017-03-25 19:58:00,71.5,54.0,29.97,SSE,148,6.0,8.0,54,0.00,,,0.00,VWS V15.00,2017-03-25 23:58:00,
2017-03-25 20:03:00,71.2,54.2,29.97,SSE,159,2.0,5.0,55,0.00,,,0.00,VWS V15.00,2017-03-26 00:03:00,
2017-03-25 20:08:00,70.8,53.8,29.97,SSE,153,1.0,5.0,55,0.00,,,0.00,VWS V15.00,2017-03-26 00:08:00,
2017-03-25 20:13:00,70.8,53.8,29.97,South,178,2.0,5.0,55,0.00,,,0.00,VWS V15.00,2017-03-26 00:13:00,
2017-03-25 20:18:00,70.7,53.8,29.97,SSE,150,2.0,5.0,55,0.00,,,0.00,VWS V15.00,2017-03-26 00:18:00,
2017-03-25 20:24:00,70.5,53.6,29.97,SSE,159,2.0,8.0,55,0.00,,,0.00,VWS V15.00,2017-03-26 00:24:00,
2017-03-25 20:29:00,70.4,53.5,29.97,SSE,154,2.0,8.0,55,0.00,,,0.00,VWS V15.00,2017-03-26 00:29:00,
2017-03-25 20:34:00,70.1,53.7,29.97,SE,144,4.0,8.0,56,0.00,,,0.00,VWS V15.00,2017-03-26 00:34:00,
2017-03-25 20:39:00,69.5,53.1,29.97,South,169,2.0,8.0,56,0.00,,,0.00,VWS V15.00,2017-03-26 00:39:00,
2017-03-25 20:44:00,69.2,53.3,29.97,SSE,147,1.0,4.0,57,0.00,,,0.00,VWS V15.00,2017-03-26 00:44:00,
2017-03-25 20:49:00,68.9,53.1,29.97,SSE,147,2.0,4.0,57,0.00,,,0.00,VWS V15.00,2017-03-26 00:49:00,
2017-03-25 20:54:00,68.8,53.4,29.97,SE,146,2.0,4.0,58,0.00,,,0.00,VWS V15.00,2017-03-26 00:54:00,
2017-03-25 20:59:00,68.6,53.2,29.97,SSE,155,2.0,4.0,58,0.00,,,0.00,VWS V15.00,2017-03-26 00:59:00,
2017-03-25 21:04:00,68.5,53.2,29.98,SE,140,2.0,4.0,58,0.00,,,0.00,VWS V15.00,2017-03-26 01:04:00,
2017-03-25 21:09:00,68.5,53.2,29.98,SE,132,1.0,1.0,58,0.00,,,0.00,VWS V15.00,2017-03-26 01:09:00,
2017-03-25 21:14:00,68.8,53.0,29.98,SSE,147,2.0,5.0,57,0.00,,,0.00,VWS V15.00,2017-03-26 01:14:00,
2017-03-25 21:19:00,68.6,53.2,29.98,SE,132,5.0,5.0,58,0.00,,,0.00,VWS V15.00,2017-03-26 01:19:00,
2017-03-25 21:24:00,68.6,53.2,29.98,SE,137,4.0,7.0,58,0.00,,,0.00,VWS V15.00,2017-03-26 01:24:00,
2017-03-25 21:29:00,68.6,53.2,29.98,SE,130,2.0,4.0,58,0.00,,,0.00,VWS V15.00,2017-03-26 01:29:00,
2017-03-25 21:34:00,68.7,53.3,29.98,SE,130,6.0,6.0,58,0.00,,,0.00,VWS V15.00,2017-03-26 01:34:00,
2017-03-25 21:39:00,68.8,53.4,29.98,SE,132,6.0,6.0,58,0.00,,,0.00,VWS V15.00,2017-03-26 01:39:00,
2017-03-25 21:44:00,69.0,53.6,29.98,SE,137,1.0,6.0,58,0.00,,,0.00,VWS V15.00,2017-03-26 01:44:00,
2017-03-25 21:49:00,68.9,53.5,29.98,ESE,115,4.0,4.0,58,0.00,,,0.00,VWS V15.00,2017-03-26 01:49:00,
2017-03-25 21:55:00,68.9,53.5,29.98,ESE,120,2.0,6.0,58,0.00,,,0.00,VWS V15.00,2017-03-26 01:55:00,
2017-03-25 22:00:00,68.9,54.0,29.98,SE,135,4.0,5.0,59,0.00,,,0.00,VWS V15.00,2017-03-26 02:00:00,
2017-03-25 22:05:00,69.0,53.6,29.98,SE,130,4.0,6.0,58,0.00,,,0.00,VWS V15.00,2017-03-26 02:05:00,
2017-03-25 22:10:00,68.9,54.0,29.98,SE,132,1.0,2.0,59,0.00,,,0.00,VWS V15.00,2017-03-26 02:10:00,
2017-03-25 22:15:00,68.8,53.9,29.98,SE,125,4.0,4.0,59,0.00,,,0.00,VWS V15.00,2017-03-26 02:15:00,
2017-03-25 22:19:00,68.8,53.9,29.98,SE,137,1.0,5.0,59,0.00,,,0.00,VWS V15.00,2017-03-26 02:19:00,
2017-03-25 22:24:00,68.8,54.4,29.97,ESE,119,2.0,6.0,60,0.00,,,0.00,VWS V15.00,2017-03-26 02:24:00,
2017-03-25 22:29:00,68.6,54.2,29.97,SE,145,6.0,6.0,60,0.00,,,0.00,VWS V15.00,2017-03-26 02:29:00,
2017-03-25 22:34:00,68.6,54.2,29.97,SE,136,4.0,6.0,60,0.00,,,0.00,VWS V15.00,2017-03-26 02:34:00,
2017-03-25 22:39:00,68.5,54.1,29.97,East,92,5.0,5.0,60,0.00,,,0.00,VWS V15.00,2017-03-26 02:39:00,
2017-03-25 22:44:00,68.4,54.0,29.97,SE,134,4.0,8.0,60,0.00,,,0.00,VWS V15.00,2017-03-26 02:44:00,
2017-03-25 22:49:00,68.3,53.9,29.97,SE,126,4.0,5.0,60,0.00,,,0.00,VWS V15.00,2017-03-26 02:49:00,
2017-03-25 22:54:00,68.2,53.8,29.97,ESE,113,4.0,7.0,60,0.00,,,0.00,VWS V15.00,2017-03-26 02:54:00,